Regional Weather Roundup
Issued by NWS

Home | Current Version | Previous Version | Graphics & Text | Print | Product List | Glossary On
Versions: 1 2 3 4 5 6 7 8 9 10 11 12 13 14 15 16 17 18 19 20 21 22 23 24 25 26 27 28 29 30 31 32 33 34 35 36 37 38 39 40 41 42 43 44 45 46 47 48 49 50
298
ASUS43 KMPX 260101
RWRMN
WEATHER ROUNDUP FOR MINNESOTA
NATIONAL WEATHER SERVICE TWIN CITIES/CHANHASSEN MN
800 PM CDT SUN JUN 25 2017


NOTE: "FAIR" INDICATES FEW OR NO CLOUDS BELOW 12,000 FEET WITH NO
SIGNIFICANT WEATHER AND/OR OBSTRUCTIONS TO VISIBILITY. N/A MEANS
CURRENT SKY AND/OR WEATHER CONDITIONS ARE NOT AVAILABLE.

MNZ060>063-068>070-260200-
   Twin Cities Metro

CITY           SKY/WX    TMP DP  RH WIND       PRES   REMARKS
TWIN CITIES    PTCLDY    65  39  38 NW12      30.12S
ST PAUL        CLEAR     65  39  38 NW15      30.12S
CRYSTAL        CLEAR     65  36  34 NW12      30.11S
BLAINE         PTCLDY    66  37  34 NW14      30.12R
LAKEVILLE      PTCLDY    63  41  45 NW6       30.13S
EDEN PRAIRIE   MOCLDY    66  40  38 NW14      30.12S
SOUTH ST PAUL  PTCLDY    66  36  33 NW13G20   30.12S
LAKE ELMO      FAIR      63  41  45 NW7       30.12S
$$
MNZ001>005-007-008-013>017-022>024-027-028-260200-
   Northwest Minnesota

CITY           SKY/WX    TMP DP  RH WIND       PRES   REMARKS
BEMIDJI        MOSUNNY   55  43  63 NW10      30.15S
HALLOCK        SUNNY     61  45  55 N13       30.18S
ROSEAU         MOSUNNY   55  46  71 N5        30.17R
WARROAD        SUNNY     57  46  67 NW6       30.16S
CROOKSTON      SUNNY     63  43  48 N13       30.18S
FOSSTON        SUNNY     55  45  67 N9        30.17S
DETROIT LAKES  SUNNY     61  39  44 NW12      30.17R
MOORHEAD       PTSUNNY   64  37  36 N13       30.17R
PARK RAPIDS    MOSUNNY   61  40  45 N10       30.14S
MAHNOMEN       FAIR      59  43  55 N14       30.17R
$$
MNZ006-009>011-018-025>026-260200-
   North Central Minnesota

CITY           SKY/WX    TMP DP  RH WIND       PRES   REMARKS
BAUDETTE       SUNNY     56  44  64 N9        30.14R
FLAG ISLAND    SUNNY     55  43  62 CALM      30.13F
INTL FALLS     MOSUNNY   54  47  77 CALM      30.13R
WASKISH        SUNNY     57  43  58 N7        30.14R
BIG FORK       LGT RAIN  52  48  87 CALM      30.13S
LONGVILLE      PTSUNNY   55  43  62 N3        30.14S
GRAND RAPIDS   CLOUDY    53  44  71 N3        30.15R
CRANE LAKE     PTCLDY    48  46  93 CALM      30.14S
ORR            PTCLDY    54  39  58 CALM      30.10S
COOK           PTCLDY    52  43  71 NE3       30.13R
WALKER         FAIR      55  43  63 NW6       30.15S
$$
MNZ012-019>021-037-260200-
   Northeast Minnesota

CITY           SKY/WX    TMP DP  RH WIND       PRES   REMARKS
DULUTH         PTCLDY    55  44  66 NW10      30.08S
ELY            CLOUDY    48  45  87 N3        30.10S
HIBBING        CLEAR     50  46  86 NW6       30.12S
EVELETH        PTCLDY    54  37  52 N6        30.12S
DULUTH HARBOR  CLEAR     61  46  59 NW15      30.09S
TWO HARBORS    CLEAR     55  46  71 N7        30.07R
SILVER BAY     CLOUDY    54  48  82 NW6       30.05S
GRAND MARAIS     N/A     50  48  93 VRB5      30.03S
G MARAIS ARPRT LGT RAIN  45  39  81 N12       30.05R
$$
MNZ029>031-032-039>041-046>048-054>057-064-260200-
   West Central Minnesota

CITY           SKY/WX    TMP DP  RH WIND       PRES   REMARKS
FERGUS FALLS   MOSUNNY   63  41  45 N8        30.14S
WHEATON        PTSUNNY   55  52  88 W3        30.20S
MORRIS         RAIN      55  50  82 NW14G29   30.19R
ALEXANDRIA     MOSUNNY   62  44  51 NW9       30.17S
ELBOW LAKE     FAIR      62  46  55 NW6       30.17S
WADENA         PTSUNNY   61  39  44 N7        30.15R
GLENWOOD       PTSUNNY   61  45  55 NW7       30.17S
APPLETON       PTSUNNY   64  45  48 N10       30.17R
BENSON         CLOUDY    59  52  77 CALM      30.19S
ORTONVILLE     MOSUNNY   64  45  48 W9        30.17S
MADISON        CLOUDY    66  46  48 W8        30.18S
WILLMAR        LGT RAIN  64  46  52 NW14      30.18S
$$
MNZ033>034-036-042>043-049>051-058-059-260200-
   Central Minnesota

CITY           SKY/WX    TMP DP  RH WIND       PRES   REMARKS
ST CLOUD       MOCLDY    64  41  42 NW13      30.13S
SAUK CENTRE    MOCLDY    61  43  50 W8        30.16S
PAYNESVILLE    CLOUDY    63  41  45 NW8       30.16S
AITKIN         PTCLDY    55  45  67 NW5       30.12S
PINE RIVER     SUNNY     59  45  58 NW6       30.17S
BRAINERD       SUNNY     60  43  53 N12       30.14R
STAPLES        MOSUNNY   63  37  39 NW12      30.14S
LONG PRAIRIE   CLOUDY    61  43  51 W7        30.16R
LITTLE FALLS   PTSUNNY   63  36  36 NW8       30.14R
LITCHFIELD     CLOUDY    63  46  55 NW8       30.16F
BUFFALO        MOCLDY    64  40  41 NW7       30.14F
MAPLE LAKE     CLOUDY    64  45  49 NW5       30.15S
HUTCHINSON     PTCLDY    64  47  54 W7        30.17F
$$
MNZ037-044-045-052-053-260200-
   East Central Minnesota

CITY           SKY/WX    TMP DP  RH WIND       PRES   REMARKS
PRINCETON      CLEAR     64  39  39 W10       30.12S
MORA           PTCLDY    59  41  51 N3        30.14R
CAMBRIDGE      PTCLDY    64  45  48 NW7       30.10S
RUSH CITY      MOCLDY    61  43  51 N7        30.12R HAZE
MOOSE LAKE     PTCLDY    57  43  58 CALM      30.09F
HINCKLEY       MOCLDY    61  45  55 NW12      30.12R
CLOQUET        CLOUDY    55  43  62 NW13      30.11R
MCGREGOR       PTCLDY    55  45  67 NW6       30.13S
$$
MNZ071>073-080-081-089-090-097-098-260200-
   Southwest Minnesota

CITY           SKY/WX    TMP DP  RH WIND       PRES   REMARKS
MONTEVIDEO     MOSUNNY   64  46  52 N3        30.17F
GRANITE FALLS  PTSUNNY   65  48  55 CALM      30.18F
CANBY          CLOUDY    63  46  54 CALM      30.19F
MARSHALL       CLOUDY    62  44  51 NW14      30.19S
REDWOOD FALLS  MOCLDY    64  46  52 N5        30.17S
OLIVIA         MOSUNNY   61  46  59 NW5       30.17F
PIPESTONE      PTSUNNY   64  45  48 NE6       30.20F
WINDOM         PTCLDY    64  39  39 NW14G20   30.20F
WORTHINGTON    CLOUDY    63  44  50 N13       30.22S
JACKSON        FLURRIES  63  43  48 NW10      30.21F
TRACY          CLOUDY    64  45  50 NW10      30.20F
SLAYTON        CLOUDY    61  44  53 NW8       30.22F
$$
MNZ065>067-074>077-082>085-091>093-260200-
   South Central Minnesota

CITY           SKY/WX    TMP DP  RH WIND       PRES   REMARKS
MANKATO        CLOUDY    65  41  41 NW7       30.16S
NEW ULM        CLOUDY    63  45  51 N10G28    30.17S
ST JAMES       CLOUDY    64  41  42 NW14      30.19F
FAIRMONT       CLOUDY    65  42  43 NW9       30.19F
GLENCOE        CLOUDY    64  47  53 NW13G20   30.15S
FARIBAULT      CLEAR     64  39  39 W6        30.15S
OWATONNA       CLEAR     64  43  45 NW10      30.15F
WASECA         CLEAR     63  39  42 NW9       30.17F
ALBERT LEA     CLEAR     64  36  34 NW8       30.17S
$$
MNZ078>079-086>088-094>096-260200-
   Southeast Minnesota

CITY           SKY/WX    TMP DP  RH WIND       PRES   REMARKS
ROCHESTER      CLEAR     62  43  49 NW13      30.15S
RED WING       PTCLDY    66  37  34 NW10      30.10F
STANTON        CLEAR     65  40  40 NW12G17   30.13R
DODGE CENTER   CLEAR     63  37  39 NW15      30.15S
WINONA         CLEAR     64  45  48 NW5       30.12S
AUSTIN         CLEAR     63  37  39 NW13      30.15S
PRESTON        PTCLDY    61  42  49 NW10      30.15R
$$
ABBREVIATIONS USED IN REMARKS
   TC - TEMPERATURES IN CELSIUS
  WCI - WIND CHILL INDEX
   HX - HEAT INDEX
  VSB - VISIBILITY
$$




USA.gov is the U.S. government's official web portal to all federal, state and local government web resources and services.